User: anonymous   Login
Location: Theydon Bois
(51.6750°N, 0.1050°E)
Time: 13:25:25
(UTC+01:00)
Language:

SPOT 3 Rocket - Orbit

View from above orbital plane
View from above orbital plane
View from above satellite
View from above satellite

Ground track
Ground track

The orbit data is extracted from the following two-line orbital elements,

1 22830U 93061H   17294.09245613 -.00000036  00000-0  40229-5 0  9999
2 22830  98.8794 312.3472 0009850 281.5039  78.5037 14.31412339256255
Epoch (UTC): 21 October 2017 02:13:08
Eccentricity: 0.0009850
inclination: 98.8794°
perigee height: 780 km
apogee height: 794 km
right ascension of ascending node: 312.3472°
argument of perigee: 281.5039°
revolutions per day: 14.31412339
mean anomaly at epoch: 78.5037°
orbit number at epoch: 25625

The dashed part of the orbit path shows where the satellite is in the earth's shadow,  

DLR